Temp
14 14 14 14 14 13 13 13 13 13 13 12 12 12 12 12 11 12 12 11 11 11 11 11 10 10 10 10 10 10 11 11 11 11 11 11 10 10 10 10 9 9 9
15 15 14 14 14 14 14 13 13 13 13 13 12 12 12 12 12 12 12 12 12 12 11 11 11 11 11 11 11 11 11 11 11 11 11 11 11 11 11 11 10 10 10
15 15 15 15 14 14 14 14 13 13 13 13 13 13 13 13 12 12 12 12 12 12 12 12 11 11 11 11 11 11 11 11 11 11 11 11 11 11 11 11 11 10 10
15 15 16 15 15 15 14 14 14 14 14 13 13 13 13 13 13 12 12 12 12 12 12 13 12 12 11 11 11 11 11 11 11 11 11 11 11 11 11 11 10 10 10
16 16 17 16 16 15 15 15 15 14 14 14 14 14 14 15 14 13 13 12 12 12 13 13 13 13 12 12 12 11 11 11 11 11 11 11 11 11 11 10 10 9 9
16 16 16 16 16 15 15 15 15 15 15 15 16 16 16 16 15 15 14 14 13 13 13 13 13 13 13 13 12 12 12 11 11 11 11 11 11 11 10 10 10 10 9
17 16 16 16 16 16 16 15 16 16 15 16 16 16 16 16 15 15 14 14 14 14 14 13 13 13 13 13 13 13 12 12 12 11 11 12 11 11 11 10 10 9 9
17 17 16 17 16 16 16 16 16 16 16 16 16 16 16 16 15 15 14 14 14 14 14 14 14 14 13 13 13 13 13 13 13 12 12 12 12 12 11 10 10 9 8
16 17 17 17 17 16 17 17 16 16 16 17 17 16 17 16 15 15 14 14 15 15 15 14 14 14 14 13 13 13 13 13 12 12 12 13 12 11 11 11 10 9 9
16 17 17 17 17 18 17 17 17 17 16 16 16 17 17 17 16 16 15 15 15 16 16 16 16 15 15 14 14 13 14 14 14 13 13 12 12 11 10 10 10 10 10
16 15 16 16 17 18 18 17 17 17 17 17 17 17 17 17 17 17 16 16 16 15 16 16 16 16 16 15 15 15 16 14 14 14 14 14 13 12 12 11 10 10 9
16 15 16 17 17 17 17 17 17 17 17 17 17 17 17 17 17 17 16 16 16 16 16 16 16 16 16 15 15 15 15 14 14 14 14 15 14 14 13 11 10 10 8
15 15 15 15 16 16 16 16 16 17 17 17 17 17 17 17 17 17 17 17 17 16 16 16 16 16 16 16 16 16 15 15 15 15 14 14 15 15 13 13 12 11 10
15 15 15 15 15 15 16 16 16 16 16 16 17 17 17 17 17 18 17 17 17 17 16 16 16 16 16 16 15 15 15 15 15 14 14 14 12 10 11 12 12 10 9
14 14 14 14 15 15 15 15 16 16 16 16 16 16 17 17 17 17 17 17 17 16 15 15 15 15 15 15 15 15 15 15 14 12 12 11 11 10 9 9 9 9 9
15 15 15 14 14 15 15 15 15 16 16 16 16 16 16 17 17 17 17 16 16 15 15 15 15 15 15 15 15 15 15 15 13 10 10 10 9 8 8 8 9 8 8
14 14 14 15 15 15 15 16 16 16 16 16 16 16 16 16 16 16 16 15 15 15 15 14 15 15 15 15 15 15 14 13 12 11 11 9 8 9 7 7 7 7 7
14 14 14 15 15 15 15 16 16 16 16 16 16 16 16 15 15 15 15 15 15 14 14 14 15 15 15 15 15 15 13 13 12 12 11 9 8 8 7 7 7 7 7
13 14 14 14 15 15 15 15 15 15 15 15 15 15 15 14 14 14 14 14 14 14 14 14 14 15 15 15 15 14 13 13 12 12 10 9 7 6 7 7 6 6 5
13 13 13 14 14 14 14 14 14 13 13 14 14 14 14 14 14 14 14 14 14 14 13 13 14 14 14 14 14 13 12 12 12 11 10 9 6 6 5 6 6 7 7
13 12 12 12 12 12 13 11 11 12 12 12 13 13 13 13 13 13 13 13 13 13 13 13 14 14 14 13 12 12 11 11 11 11 10 9 8 7 6 6 4 4 4
12 12 12 12 12 12 12 12 10 10 10 11 11 11 12 11 11 12 12 12 12 12 12 12 13 12 12 11 11 11 10 10 10 10 9 8 8 7 6 6 5 5 5
9 9 10 9 10 10 10 11 11 11 10 10 10 10 10 10 11 11 11 11 11 11 11 11 10 10 10 10 10 9 9 9 8 9 8 8 6 6 6 5 5 5 5
9 9 8 6 6 6 8 9 10 10 10 9 9 9 9 9 10 10 10 10 10 10 9 9 9 8 9 9 9 8 8 7 7 7 7 7 6 5 5 5 5 4 4
7 8 7 7 5 6 5 6 8 8 7 7 7 8 8 8 9 9 8 8 8 7 8 7 7 7 6 7 7 7 7 7 6 7 6 6 5 5 5 4 4 4 4
6 6 6 6 6 7 5 6 6 6 7 6 6 6 6 6 6 6 6 6 6 6 6 5 5 5 5 5 5 5 5 6 6 6 5 5 5 4 2 2 2 2 1
Height
3168 3174 3177 3180 3185 3189 3192 3196 3200 3203 3205 3208 3210 3212 3214 3215 3216 3219 3221 3223 3226 3228 3230 3232 3233 3234 3235 3236 3236 3236 3236 3235 3235 3235 3233 3232 3231 3230 3228 3226 3224 3223 3222
3165 3168 3172 3176 3180 3184 3188 3192 3195 3198 3201 3203 3206 3208 3210 3213 3215 3216 3218 3220 3222 3224 3226 3228 3230 3230 3232 3233 3233 3234 3234 3233 3231 3231 3230 3230 3229 3228 3227 3224 3222 3220 3218
3160 3164 3168 3171 3174 3178 3183 3188 3190 3194 3197 3199 3201 3204 3207 3209 3211 3212 3214 3216 3218 3220 3222 3223 3226 3227 3228 3229 3229 3230 3230 3230 3229 3228 3227 3225 3225 3225 3223 3222 3219 3217 3214
3157 3160 3164 3167 3171 3175 3180 3183 3186 3189 3192 3195 3197 3200 3202 3204 3206 3208 3210 3212 3214 3215 3216 3218 3220 3222 3223 3224 3224 3224 3224 3224 3223 3223 3222 3221 3220 3220 3219 3217 3215 3213 3210
3154 3157 3161 3166 3169 3172 3175 3179 3182 3185 3188 3191 3193 3195 3197 3199 3201 3203 3205 3207 3208 3210 3211 3213 3214 3216 3217 3218 3218 3218 3217 3217 3216 3216 3215 3215 3214 3213 3212 3212 3208 3206 3203
3152 3155 3161 3163 3166 3169 3173 3176 3179 3182 3185 3187 3189 3191 3193 3195 3197 3199 3201 3202 3203 3204 3205 3207 3208 3209 3210 3211 3212 3212 3212 3210 3208 3207 3206 3205 3206 3206 3204 3202 3200 3197 3195
3150 3153 3157 3160 3163 3167 3170 3173 3175 3178 3181 3184 3186 3188 3189 3191 3194 3196 3197 3198 3199 3199 3200 3201 3201 3203 3205 3205 3205 3205 3204 3203 3202 3201 3198 3197 3197 3197 3196 3193 3190 3187 3187
3146 3150 3153 3155 3158 3162 3164 3168 3172 3174 3177 3179 3181 3183 3185 3187 3190 3191 3193 3194 3194 3194 3195 3196 3196 3197 3197 3198 3198 3197 3196 3195 3195 3194 3189 3190 3188 3188 3184 3184 3181 3177 3176
3141 3145 3149 3152 3155 3158 3159 3162 3166 3169 3171 3173 3175 3177 3178 3181 3183 3186 3187 3187 3187 3187 3188 3188 3189 3189 3190 3191 3189 3187 3185 3184 3184 3184 3182 3179 3178 3176 3174 3170 3166 3164 3160
3136 3140 3143 3146 3149 3152 3155 3157 3159 3161 3164 3166 3168 3170 3172 3173 3175 3177 3177 3178 3179 3179 3179 3180 3180 3180 3179 3179 3178 3177 3175 3174 3173 3173 3170 3168 3166 3163 3161 3156 3153 3147 3144
3131 3134 3138 3141 3143 3145 3147 3150 3153 3155 3157 3158 3160 3161 3163 3164 3165 3167 3168 3167 3170 3169 3170 3171 3170 3170 3169 3168 3166 3165 3164 3164 3161 3158 3156 3154 3152 3149 3146 3144 3140 3133 3126
3123 3128 3131 3133 3136 3138 3141 3143 3145 3146 3148 3150 3152 3153 3154 3155 3155 3157 3157 3157 3158 3158 3160 3161 3161 3160 3159 3158 3156 3155 3154 3151 3147 3144 3141 3139 3136 3133 3133 3130 3128 3122 3100
3117 3120 3123 3125 3128 3131 3133 3135 3137 3138 3139 3141 3142 3143 3145 3146 3146 3146 3146 3147 3148 3148 3150 3151 3150 3150 3149 3149 3147 3145 3143 3140 3137 3133 3129 3126 3123 3118 3112 3111 3109 3106 3103
3109 3112 3115 3119 3121 3124 3126 3128 3129 3130 3132 3133 3134 3135 3136 3135 3136 3136 3136 3136 3137 3137 3139 3140 3141 3141 3141 3140 3139 3137 3134 3130 3126 3122 3117 3114 3109 3104 3099 3095 3091 3089 3088
3101 3104 3108 3110 3114 3116 3117 3118 3120 3122 3123 3125 3126 3126 3126 3126 3128 3127 3127 3127 3127 3128 3129 3131 3132 3132 3132 3131 3130 3129 3126 3120 3114 3112 3107 3102 3097 3092 3086 3081 3077 3075 3072
3092 3095 3098 3101 3103 3105 3106 3108 3110 3111 3114 3115 3117 3116 3117 3118 3118 3118 3118 3118 3119 3120 3121 3123 3124 3124 3123 3122 3119 3116 3113 3108 3102 3098 3094 3089 3083 3077 3072 3068 3063 3059 3053
3082 3084 3086 3090 3093 3094 3096 3098 3100 3102 3104 3106 3106 3105 3107 3108 3109 3109 3109 3110 3111 3112 3114 3115 3116 3115 3114 3112 3108 3104 3098 3093 3088 3084 3079 3073 3067 3063 3057 3053 3050 3042 3040
3073 3074 3078 3082 3084 3086 3087 3089 3092 3093 3095 3096 3097 3097 3098 3099 3100 3101 3101 3102 3103 3105 3106 3107 3106 3106 3104 3101 3097 3092 3086 3080 3074 3069 3063 3058 3054 3050 3047 3045 3041 3035 3031
3065 3067 3070 3072 3075 3077 3078 3080 3082 3082 3085 3087 3089 3090 3090 3091 3092 3092 3093 3094 3096 3096 3097 3098 3097 3096 3093 3090 3086 3081 3076 3071 3065 3059 3053 3048 3044 3042 3039 3039 3034 3031 3032
3059 3060 3062 3063 3065 3067 3069 3070 3072 3075 3076 3078 3080 3082 3083 3084 3085 3086 3086 3087 3088 3089 3088 3088 3087 3085 3083 3080 3075 3071 3066 3060 3055 3050 3045 3041 3038 3038 3036 3034 3031 3030 3029
3051 3053 3055 3056 3056 3056 3058 3062 3064 3066 3069 3070 3072 3074 3076 3077 3077 3078 3078 3079 3080 3079 3078 3077 3075 3074 3072 3068 3065 3061 3056 3052 3048 3044 3040 3036 3033 3033 3031 3031 3030 3028 3030
3042 3043 3045 3047 3050 3052 3054 3056 3058 3060 3061 3062 3062 3063 3065 3066 3067 3068 3069 3070 3070 3069 3068 3067 3065 3063 3061 3059 3057 3052 3049 3046 3043 3040 3037 3034 3033 3031 3029 3030 3030 3031 3033
3032 3033 3034 3036 3039 3042 3045 3048 3050 3050 3051 3052 3053 3053 3056 3059 3059 3060 3061 3061 3060 3060 3060 3057 3055 3054 3052 3050 3048 3045 3043 3041 3040 3038 3036 3034 3032 3032 3031 3030 3031 3033 3034
3024 3025 3027 3028 3030 3031 3034 3038 3039 3039 3040 3042 3043 3044 3046 3048 3049 3050 3050 3050 3050 3050 3048 3048 3047 3046 3045 3042 3039 3039 3038 3037 3036 3035 3033 3032 3032 3031 3031 3030 3031 3032 3032
3016 3017 3018 3021 3023 3024 3024 3027 3031 3031 3032 3034 3036 3037 3038 3039 3039 3040 3040 3040 3041 3041 3040 3039 3039 3039 3037 3036 3034 3033 3032 3031 3030 3030 3029 3029 3027 3026 3026 3027 3028 3029 3029
2999 3001 3006 3009 3017 3014 3018 3018 3017 3021 3023 3025 3025 3026 3028 3029 3029 3030 3031 3032 3032 3032 3032 3031 3031 3030 3030 3029 3027 3026 3025 3025 3025 3024 3022 3022 3021 3022 3022 3024 3024 3023 3027
Wind_Speed
31 29 28 28 27 26 26 24 22 20 18 16 14 13 12 13 12 9 8 14 20 19 17 16 14 12 9 8 7 6 5 6 5 6 5 6 7 9 11 12 13 13 13
30 31 31 28 27 27 25 24 21 21 20 17 16 15 13 11 10 8 7 9 15 21 20 20 18 17 15 14 13 11 9 10 11 10 10 11 10 10 10 12 15 17 15
31 31 30 30 29 26 25 24 23 21 21 21 18 14 11 10 11 11 10 10 11 15 22 23 22 23 21 19 18 17 16 16 16 16 16 17 16 15 15 14 14 16 17
27 28 28 28 27 25 23 23 24 22 21 20 18 18 16 15 15 15 15 14 13 14 16 22 24 26 26 26 26 24 23 23 23 23 22 23 23 21 21 20 20 19 20
22 22 22 22 22 23 23 22 21 21 20 19 18 16 16 16 16 16 16 16 16 16 17 19 23 27 28 27 29 29 30 30 31 31 31 30 29 29 28 26 27 26 25
25 23 20 20 19 18 18 18 19 18 19 18 17 17 16 16 15 14 14 15 16 17 19 20 21 22 27 30 31 31 33 35 37 38 38 37 36 34 34 35 34 34 34
24 24 25 25 24 23 21 21 22 21 21 21 21 20 19 16 14 13 13 15 16 15 16 17 19 21 22 25 27 31 35 38 40 42 44 44 42 40 39 40 41 41 40
20 18 16 19 22 25 27 27 26 26 26 25 25 24 24 23 21 20 18 19 21 19 19 19 20 20 22 22 24 29 31 34 36 39 43 43 46 46 48 45 45 46 44
23 23 17 15 16 20 26 27 28 30 31 30 29 29 29 28 28 28 28 27 26 25 26 27 28 28 29 30 32 34 36 36 38 37 37 39 41 41 41 44 49 51 52
28 25 22 20 21 22 23 23 24 26 30 34 34 34 34 34 34 33 34 35 32 29 30 28 28 31 34 38 41 42 40 40 43 42 44 44 46 46 46 48 48 51 50
33 30 31 30 29 27 25 22 22 22 23 23 24 30 36 38 38 38 38 38 35 37 35 33 34 35 37 39 41 41 40 43 45 47 50 51 52 54 55 55 56 58 57
33 27 27 30 30 30 28 27 27 28 29 28 28 28 28 31 37 41 43 43 41 39 36 36 37 39 41 41 41 41 41 41 43 46 47 47 52 57 58 55 55 60 55
32 30 30 31 33 32 32 32 33 34 34 33 33 33 32 32 33 34 38 42 44 44 40 39 40 41 41 41 37 34 34 34 36 40 42 45 49 53 55 54 54 55 54
34 34 35 37 36 34 31 30 32 34 33 33 34 34 33 35 36 37 36 36 38 41 40 41 40 39 33 29 25 26 30 36 41 45 48 51 52 54 55 57 59 58 58
39 39 38 39 40 40 40 37 36 35 35 35 34 35 36 37 35 36 35 34 34 34 36 33 30 27 27 27 29 32 38 44 49 46 49 51 52 53 55 58 58 60 61
45 47 47 46 44 46 49 48 43 39 37 36 35 35 35 35 34 33 32 31 28 27 25 26 30 27 28 31 35 40 45 49 51 48 48 52 54 57 59 61 58 66 68
35 37 37 36 33 35 37 39 40 40 37 34 35 35 32 31 32 31 29 28 28 32 32 30 26 28 32 34 40 46 49 52 52 52 56 53 53 51 46 46 47 53 58
30 33 34 35 35 30 29 34 37 39 37 33 28 28 30 29 28 28 27 28 28 25 23 25 28 30 32 38 42 47 48 45 45 48 47 41 38 38 40 39 40 33 24
22 29 30 30 32 32 30 28 30 35 34 29 25 24 24 25 27 27 28 27 24 23 24 27 28 32 37 38 41 40 40 40 41 42 40 36 31 28 32 33 18 10 11
22 20 24 27 27 28 28 26 27 27 29 29 29 27 26 25 27 28 27 26 26 28 30 30 31 34 36 35 36 36 34 35 36 33 29 26 19 20 15 15 16 22 19
29 28 25 25 25 28 31 27 28 27 29 31 31 31 30 31 32 34 32 30 30 32 33 32 32 33 33 32 32 31 28 27 26 22 23 23 15 14 9 7 5 5 11
36 38 37 37 32 31 28 33 33 33 35 34 36 38 37 39 38 38 35 33 33 32 31 31 30 29 29 28 28 24 19 14 14 15 13 11 4 6 4 5 5 11 11
42 44 47 46 46 38 35 33 34 35 37 39 42 43 42 40 39 36 32 30 28 29 29 26 26 24 25 24 22 18 14 11 10 11 9 5 5 4 3 7 9 10 11
49 43 39 34 35 34 29 35 37 36 36 36 36 36 36 34 33 32 31 30 30 28 24 23 22 20 20 20 21 19 17 13 12 14 14 13 13 12 12 12 14 16 16
52 51 48 44 34 40 36 26 34 37 34 33 32 33 33 33 32 30 29 27 25 23 23 23 21 20 18 18 20 19 19 18 17 18 19 18 16 15 14 16 16 15 13
36 42 43 47 46 34 39 44 38 34 35 32 30 29 26 24 23 23 22 23 23 23 22 23 24 24 23 23 24 24 23 25 22 22 21 21 18 16 15 14 13 13 14
Wind_Direction
211 206 208 209 207 210 217 221 220 220 218 215 219 219 217 221 228 228 212 215 214 216 222 223 224 237 240 244 258 271 293 303 320 324 336 331 325 317 318 323 325 332 339
212 207 207 210 210 210 214 221 222 220 223 222 222 222 220 222 235 243 233 227 226 223 223 234 237 242 247 251 252 254 263 282 291 292 299 305 315 319 321 314 313 318 323
209 210 207 210 215 216 215 218 224 221 221 226 230 232 227 228 234 244 246 239 233 230 229 231 237 246 248 253 260 262 264 265 272 278 285 291 298 304 306 310 310 306 304
209 213 214 213 215 221 223 221 224 225 223 228 233 239 240 240 239 243 251 253 246 241 237 236 237 240 246 251 259 264 266 269 272 274 274 279 283 287 291 298 296 292 291
204 204 206 211 214 217 221 224 223 225 229 229 232 226 227 227 233 238 245 253 255 248 244 242 241 242 246 247 251 257 263 267 269 272 275 277 279 284 290 289 287 286 283
216 214 213 210 212 210 212 213 215 213 213 215 215 220 222 228 241 247 245 246 250 251 252 254 253 249 248 252 254 256 259 264 268 270 273 275 278 281 283 286 284 282 282
222 222 226 230 229 227 226 222 218 218 222 220 223 230 236 235 237 242 245 246 248 252 254 256 259 263 262 262 262 261 262 264 268 273 275 278 281 282 281 277 279 278 281
216 208 217 225 231 232 233 230 227 227 228 232 236 237 242 246 246 250 252 253 256 258 262 267 269 271 272 274 275 273 273 273 272 273 277 281 281 281 280 278 276 274 269
226 225 220 240 239 229 229 234 234 235 238 238 241 245 249 253 255 255 256 257 260 264 266 268 271 274 275 274 274 276 278 277 276 278 279 276 279 280 280 277 272 270 270
226 230 239 249 270 240 232 232 235 238 241 243 245 246 249 253 255 256 258 260 264 267 270 272 276 279 280 279 277 276 276 278 281 278 274 274 276 277 275 272 272 273 273
230 241 248 255 266 247 239 236 241 243 245 246 248 249 248 250 253 254 256 259 261 265 269 275 279 283 285 285 284 283 283 284 283 280 280 279 277 277 278 278 278 277 266
227 225 231 242 242 239 246 252 255 258 260 260 261 260 258 257 253 254 258 259 260 263 267 271 276 280 281 284 286 287 288 286 283 285 287 288 287 284 281 282 283 287 290
227 230 235 237 237 241 249 254 260 262 264 265 267 267 263 262 262 263 260 260 263 264 266 271 274 280 285 289 290 289 288 290 291 291 291 291 291 294 295 293 294 289 284
231 233 236 240 246 249 249 256 261 260 263 268 269 269 266 263 264 264 267 267 264 265 267 269 275 283 287 284 286 288 291 294 293 291 290 295 295 292 288 289 290 290 289
233 236 238 243 249 251 256 258 263 261 262 265 268 268 265 265 267 265 266 268 267 269 271 276 280 281 284 289 291 293 296 294 292 291 290 290 288 285 285 285 283 287 287
242 244 246 248 250 256 259 260 257 259 262 263 266 272 267 266 267 267 263 263 265 267 270 277 280 282 284 290 293 295 293 290 292 289 289 289 288 286 287 288 288 286 284
240 239 241 243 247 253 254 251 248 255 260 263 268 267 264 265 262 259 259 257 259 266 274 274 274 278 284 292 296 295 294 293 292 289 289 288 286 292 293 293 294 290 289
241 236 234 237 244 252 256 253 252 254 256 260 265 265 263 260 259 259 257 255 259 260 260 266 273 282 292 295 295 299 299 299 296 291 288 287 288 290 296 297 302 296 290
250 243 239 239 246 250 256 257 252 252 253 256 265 268 264 260 256 252 252 253 251 253 259 268 276 287 293 296 300 299 299 301 296 294 299 298 292 291 294 308 297 225 303
257 259 253 247 248 248 245 249 250 249 254 257 262 265 265 260 260 258 252 252 252 257 266 274 281 290 293 294 296 298 302 298 295 303 306 309 290 310 307 306 280 282 296
261 265 265 269 260 257 251 252 253 254 252 256 259 258 263 263 261 258 257 255 257 263 270 277 284 290 292 293 297 299 296 298 304 307 303 298 281 288 286 271 254 119 162
269 275 276 280 277 270 271 266 250 253 259 261 260 261 259 258 262 260 257 255 260 267 272 275 282 287 292 296 297 295 293 300 310 313 316 303 258 236 288 220 191 174 181
282 285 287 285 282 280 266 266 264 261 257 257 259 261 261 262 263 259 258 262 266 267 269 277 281 286 288 286 281 276 278 294 296 290 284 280 227 235 219 211 212 224 208
273 277 275 269 268 269 257 263 255 254 255 254 253 255 256 254 249 248 249 253 256 261 266 270 276 281 285 283 271 265 266 273 274 268 267 252 242 245 250 233 224 216 200
270 264 268 268 257 252 251 240 258 255 251 247 243 242 240 239 241 246 251 256 260 263 266 267 268 265 262 266 265 262 262 266 270 271 268 264 255 240 219 220 221 215 216
254 240 230 250 235 227 258 260 236 239 249 238 231 231 237 241 245 250 255 260 263 267 269 268 265 261 257 257 262 267 272 273 271 267 265 260 254 252 235 240 245 238 245